星链-32562 (STARLINK-32562)

导读

STARLINK-32562是美国SpaceX公司星链星座的第二代卫星,于2024年11月30日发射入轨。作为星链全球低轨宽带互联网星座的一员,它配备增强型相控阵天线与激光星间链路,单星容量超100Gbps,可为全球偏远地区提供高速低延迟互联网接入,同时支持自主轨道机动与避碰,退役后会坠入大气层完全烧毁,减少太空碎片风险。

基本信息
目录编号:
62168
目录名称:
STARLINK-32562
国际标识:
2024-225F
轨道中心:
EARTH
卫星名称:
星链-32562
卫星全名:
星链-32562 (STARLINK-32562)
卫星状态:
在轨 (已飞行651 天)
发射日期:
2024-11-30 UTC
国别 :
美国 (US)
星等 :
--
该卫星已列入 空间交会检测服务 Space Conjunction Data Service (SCDS) ,当前飞行风险评估等级: 无高风险
轨道信息
数据来源 国际轨道数据
星历时间: 2026-09-12T01:47:34+0800
13小时前
查看轨道信息
半长轴: 6950.182km
偏心率: 0.0002627
轨道倾角: 70.001°
近地点辐角 264.613°
升交点赤经 55.353°
平近点角 95.473°
近地点: 570.219km
远地点: 573.871km
周期: 96.107分钟
每日圈数: 14.983337
详细信息
固有亮度:
5
最大亮度:
2.5
卫星平台:
Starlink V1.0
覆盖范围:
全球
运营商:
太空探索技术公司
运营商所在国:
美国
制造商(研发单位):
太空探索技术公司
制造商所在国:
美国
使用方式:
暂无
卫星简介
Starlink 计划是 SpaceX 推出的全球卫星互联网项目,通过发射低轨道卫星,为全球尤其是偏远地区提供高速、低延迟的互联网服务。自 2019 年起,Starlink 已部署数千颗卫星,旨在缩小全球数字鸿沟,推动互联网普及。该项目还为军事、航空等行业提供通信支持,带来广泛经济效益。
2D轨道图
3D轨道图
轨道高度分析图
轨道倾角分析图
轨道综合分析图
查看轨道综合分析图
交会数据列表
事件ID 空间交会对象 最接近时刻(TCA) 交会距离 交会风险概率(CRP) 交会风险指数(CRI) 操作
CDM_260913-032804-435806-216824
2026-09-13T
03:28:48+0000
1.424 km
极远距离
4.355481E-6 低风险 0.48
CDM_260913-032606-084806-216825
2026-09-13T
03:26:40+0000
2.601 km
极远距离
1.648419E-6 低风险 0.39
与全量物体交会距离演化趋势
与全量物体交会风险概率演化趋势